GLO7542 SBGL-SBJP

Flight info

Callsign GLO7542
Flight time 3h 22m
Altitude 37000
Route UKENU UN857 MUDSI UZ11 REC
Aircraft B738/M-SDE2E3FGHIRWXY/LB1

Departure

Time 2026-04-16 11:12
Airport Rio Galeão – Tom Jobim International Airport (SBGL)

Arrival

Time 2026-04-16 14:34
Airport Presidente Castro Pinto International Airport (SBJP)
Time Latitude Longitude Altitude Speed Heading
2026-04-16 11:02 -22.81709 -43.24768 20 ft 0 kts 215°
2026-04-16 11:02 -22.81694 -43.24757 21 ft 4 kts 214°
2026-04-16 11:03 -22.81678 -43.24744 24 ft 2 kts 245°
2026-04-16 11:03 -22.81678 -43.24733 24 ft 2 kts 302°
2026-04-16 11:03 -22.81684 -43.24723 23 ft 0 kts 307°
2026-04-16 11:05 -22.81683 -43.24725 23 ft 2 kts 307°
2026-04-16 11:05 -22.81644 -43.24782 20 ft 16 kts 307°
2026-04-16 11:05 -22.81556 -43.24906 20 ft 22 kts 307°
2026-04-16 11:06 -22.81507 -43.25041 20 ft 18 kts 272°
2026-04-16 11:06 -22.81481 -43.25143 20 ft 13 kts 253°
2026-04-16 11:06 -22.81545 -43.25206 21 ft 12 kts 227°
2026-04-16 11:06 -22.81537 -43.25293 20 ft 13 kts 304°
2026-04-16 11:07 -22.81466 -43.25403 20 ft 21 kts 305°
2026-04-16 11:07 -22.81383 -43.25529 20 ft 20 kts 306°
2026-04-16 11:07 -22.81302 -43.25651 20 ft 20 kts 306°
2026-04-16 11:07 -22.81223 -43.25770 22 ft 19 kts 306°
2026-04-16 11:08 -22.81134 -43.25823 21 ft 14 kts 22°
2026-04-16 11:08 -22.81055 -43.25763 21 ft 14 kts 36°
2026-04-16 11:08 -22.80979 -43.25704 23 ft 13 kts 35°
2026-04-16 11:08 -22.80906 -43.25649 24 ft 13 kts 33°
2026-04-16 11:09 -22.80830 -43.25590 22 ft 14 kts 36°
2026-04-16 11:09 -22.80750 -43.25529 21 ft 14 kts 36°
2026-04-16 11:09 -22.80675 -43.25471 21 ft 13 kts 35°
2026-04-16 11:09 -22.80595 -43.25454 29 ft 13 kts 320°
2026-04-16 11:10 -22.80537 -43.25526 30 ft 12 kts 317°
2026-04-16 11:10 -22.80466 -43.25578 29 ft 12 kts 326°
2026-04-16 11:10 -22.80391 -43.25612 28 ft 12 kts
2026-04-16 11:10 -22.80316 -43.25568 28 ft 12 kts 37°
2026-04-16 11:11 -22.80248 -43.25512 28 ft 12 kts 37°
2026-04-16 11:11 -22.80184 -43.25456 26 ft 12 kts 47°
2026-04-16 11:11 -22.80151 -43.25368 24 ft 20 kts 75°
2026-04-16 11:11 -22.80054 -43.24997 27 ft 85 kts 74°
2026-04-16 11:12 -22.79842 -43.24180 29 ft 141 kts 74°
2026-04-16 11:12 -22.79560 -43.23015 235 ft 168 kts 76°
2026-04-16 11:12 -22.79411 -43.22212 697 ft 165 kts 77°
2026-04-16 11:12 -22.79140 -43.20989 1302 ft 167 kts 75°
2026-04-16 11:13 -22.78754 -43.19328 1981 ft 183 kts 76°
2026-04-16 11:13 -22.78426 -43.17883 2221 ft 210 kts 76°
2026-04-16 11:13 -22.78065 -43.16260 2407 ft 233 kts 76°
2026-04-16 11:13 -22.77806 -43.15080 2538 ft 251 kts 77°
2026-04-16 11:14 -22.77396 -43.13189 3032 ft 262 kts 77°
2026-04-16 11:14 -22.76970 -43.11242 3747 ft 266 kts 74°
2026-04-16 11:14 -22.76029 -43.09535 4484 ft 268 kts 42°
2026-04-16 11:14 -22.74555 -43.08288 5223 ft 270 kts 37°
2026-04-16 11:15 -22.73039 -43.07091 5903 ft 273 kts 37°
2026-04-16 11:15 -22.71493 -43.05873 6624 ft 276 kts 37°
2026-04-16 11:15 -22.69933 -43.04632 7293 ft 280 kts 37°
2026-04-16 11:15 -22.68354 -43.03365 7970 ft 284 kts 37°
2026-04-16 11:16 -22.66779 -43.02090 8649 ft 288 kts 37°
2026-04-16 11:16 -22.65167 -43.00778 9359 ft 292 kts 37°
2026-04-16 11:16 -22.63529 -42.99438 10076 ft 297 kts 37°
2026-04-16 11:16 -22.61845 -42.98056 10483 ft 313 kts 37°
2026-04-16 11:17 -22.60064 -42.96591 10668 ft 334 kts 37°
2026-04-16 11:17 -22.58179 -42.95040 11135 ft 344 kts 37°
2026-04-16 11:17 -22.56266 -42.93463 11767 ft 348 kts 37°
2026-04-16 11:17 -22.54322 -42.91860 12437 ft 352 kts 37°
2026-04-16 11:18 -22.52365 -42.90247 13127 ft 355 kts 37°
2026-04-16 11:18 -22.50381 -42.88611 13774 ft 360 kts 37°
2026-04-16 11:18 -22.48367 -42.86950 14334 ft 366 kts 37°
2026-04-16 11:18 -22.46353 -42.85290 14879 ft 371 kts 37°
2026-04-16 11:19 -22.44259 -42.83564 15463 ft 376 kts 37°
2026-04-16 11:19 -22.42195 -42.81864 16073 ft 380 kts 38°
2026-04-16 11:19 -22.40073 -42.80116 16654 ft 385 kts 37°
2026-04-16 11:19 -22.37925 -42.78351 17196 ft 391 kts 37°
2026-04-16 11:20 -22.35741 -42.76556 17772 ft 395 kts 37°
2026-04-16 11:20 -22.33536 -42.74743 18315 ft 400 kts 37°
2026-04-16 11:20 -22.31333 -42.72930 18757 ft 405 kts 37°
2026-04-16 11:20 -22.29074 -42.71072 19281 ft 408 kts 38°
2026-04-16 11:21 -22.26815 -42.69212 19741 ft 410 kts 38°
2026-04-16 11:21 -22.24517 -42.67326 20207 ft 415 kts 37°
2026-04-16 11:21 -22.22211 -42.65433 20679 ft 419 kts 37°
2026-04-16 11:21 -22.19908 -42.63544 21176 ft 421 kts 38°
2026-04-16 11:22 -22.17530 -42.61595 21681 ft 425 kts 37°
2026-04-16 11:22 -22.15189 -42.59676 22123 ft 429 kts 38°
2026-04-16 11:22 -22.12801 -42.57719 22588 ft 432 kts 38°
2026-04-16 11:22 -22.10394 -42.55748 23056 ft 435 kts 38°
2026-04-16 11:23 -22.07963 -42.53757 23521 ft 439 kts 38°
2026-04-16 11:23 -22.05523 -42.51760 23910 ft 442 kts 38°
2026-04-16 11:23 -22.03095 -42.49775 24307 ft 444 kts 37°
2026-04-16 11:23 -22.00629 -42.47758 24737 ft 445 kts 37°
2026-04-16 11:24 -21.98150 -42.45733 25137 ft 447 kts 37°
2026-04-16 11:24 -21.95656 -42.43696 25512 ft 449 kts 37°
2026-04-16 11:24 -21.93157 -42.41655 25920 ft 451 kts 37°
2026-04-16 11:24 -21.90647 -42.39608 26306 ft 453 kts 37°
2026-04-16 11:25 -21.88129 -42.37554 26656 ft 456 kts 37°
2026-04-16 11:25 -21.85620 -42.35508 27010 ft 458 kts 37°
2026-04-16 11:25 -21.83074 -42.33433 27370 ft 460 kts 37°
2026-04-16 11:25 -21.80510 -42.31344 27720 ft 462 kts 36°
2026-04-16 11:26 -21.77940 -42.29252 28074 ft 463 kts 36°
2026-04-16 11:26 -21.75359 -42.27151 28405 ft 466 kts 36°
2026-04-16 11:26 -21.72769 -42.25045 28733 ft 468 kts 36°
2026-04-16 11:26 -21.70161 -42.22923 29055 ft 470 kts 36°
2026-04-16 11:27 -21.67546 -42.20798 29383 ft 472 kts 36°
2026-04-16 11:27 -21.64956 -42.18694 29681 ft 474 kts 36°
2026-04-16 11:27 -21.62320 -42.16554 29964 ft 476 kts 36°
2026-04-16 11:27 -21.59668 -42.14402 30236 ft 478 kts 36°
2026-04-16 11:28 -21.56998 -42.12236 30477 ft 480 kts 36°
2026-04-16 11:28 -21.54327 -42.10070 30713 ft 482 kts 36°
2026-04-16 11:28 -21.51664 -42.07911 30915 ft 485 kts 36°
2026-04-16 11:28 -21.48966 -42.05725 31130 ft 487 kts 36°
2026-04-16 11:29 -21.46258 -42.03533 31361 ft 488 kts 36°
2026-04-16 11:29 -21.43537 -42.01331 31653 ft 488 kts 36°
2026-04-16 11:29 -21.40822 -41.99134 31976 ft 488 kts 36°
2026-04-16 11:29 -21.38110 -41.96940 32258 ft 489 kts 36°
2026-04-16 11:30 -21.35385 -41.94738 32532 ft 489 kts 36°
2026-04-16 11:30 -21.32695 -41.92564 32848 ft 489 kts 36°
2026-04-16 11:30 -21.29964 -41.90359 33156 ft 489 kts 36°
2026-04-16 11:30 -21.27237 -41.88158 33434 ft 490 kts 36°
2026-04-16 11:31 -21.24513 -41.85960 33709 ft 490 kts 36°
2026-04-16 11:31 -21.21819 -41.83787 34033 ft 490 kts 36°
2026-04-16 11:31 -21.19050 -41.81664 34290 ft 489 kts 31°
2026-04-16 11:31 -21.16114 -41.79814 34573 ft 487 kts 28°
2026-04-16 11:32 -21.13134 -41.78072 34883 ft 486 kts 27°
2026-04-16 11:32 -21.10150 -41.76370 35101 ft 487 kts 26°
2026-04-16 11:32 -21.07155 -41.74659 35272 ft 489 kts 27°
2026-04-16 11:32 -21.04157 -41.72927 35521 ft 488 kts 27°
2026-04-16 11:33 -21.01178 -41.71186 35830 ft 487 kts 28°
2026-04-16 11:33 -20.98237 -41.69454 36063 ft 487 kts 28°
2026-04-16 11:33 -20.95256 -41.67690 36331 ft 486 kts 28°
2026-04-16 11:33 -20.92302 -41.65939 36623 ft 485 kts 28°
2026-04-16 11:34 -20.89345 -41.64188 36823 ft 485 kts 28°
2026-04-16 11:34 -20.86420 -41.62458 37016 ft 486 kts 28°
2026-04-16 11:34 -20.83443 -41.60698 37080 ft 490 kts 28°
2026-04-16 11:35 -20.77428 -41.57147 37086 ft 496 kts 28°
2026-04-16 11:35 -20.71335 -41.53553 37098 ft 504 kts 28°
2026-04-16 11:36 -20.65194 -41.49935 37086 ft 508 kts 28°
2026-04-16 11:36 -20.58986 -41.46280 37089 ft 509 kts 28°
2026-04-16 11:37 -20.52769 -41.42623 37071 ft 509 kts 29°
2026-04-16 11:37 -20.46574 -41.38977 37084 ft 508 kts 29°
2026-04-16 11:38 -20.40423 -41.35339 37087 ft 507 kts 29°
2026-04-16 11:38 -20.34246 -41.31685 37084 ft 507 kts 29°
2026-04-16 11:39 -20.28058 -41.28030 37086 ft 506 kts 29°
2026-04-16 11:39 -20.21926 -41.24412 37087 ft 506 kts 29°
2026-04-16 11:40 -20.15756 -41.20778 37082 ft 505 kts 29°
2026-04-16 11:40 -20.09623 -41.17160 37072 ft 505 kts 29°
2026-04-16 11:41 -20.03497 -41.13547 37066 ft 505 kts 29°
2026-04-16 11:41 -19.97337 -41.09916 37067 ft 505 kts 29°
2026-04-16 11:42 -19.91179 -41.06290 37065 ft 505 kts 29°
2026-04-16 11:42 -19.85068 -41.02696 37061 ft 504 kts 29°
2026-04-16 11:43 -19.78903 -40.99118 37052 ft 504 kts 29°
2026-04-16 11:43 -19.72748 -40.95563 37051 ft 504 kts 29°
2026-04-16 11:44 -19.66585 -40.91999 37057 ft 503 kts 29°
2026-04-16 11:44 -19.60437 -40.88443 37058 ft 502 kts 29°
2026-04-16 11:45 -19.54327 -40.84909 37063 ft 502 kts 29°
2026-04-16 11:45 -19.48179 -40.81354 37054 ft 503 kts 29°
2026-04-16 11:46 -19.42018 -40.77791 37043 ft 504 kts 29°
2026-04-16 11:46 -19.35895 -40.74254 37052 ft 504 kts 29°
2026-04-16 11:47 -19.29725 -40.70692 37046 ft 505 kts 29°
2026-04-16 11:47 -19.23539 -40.67125 37046 ft 505 kts 29°
2026-04-16 11:48 -19.17392 -40.63583 37048 ft 505 kts 29°
2026-04-16 11:48 -19.11219 -40.60030 37047 ft 505 kts 29°
2026-04-16 11:49 -19.05046 -40.56479 37044 ft 504 kts 29°
2026-04-16 11:49 -18.98910 -40.52952 37041 ft 504 kts 29°
2026-04-16 11:50 -18.92742 -40.49410 37042 ft 503 kts 29°
2026-04-16 11:50 -18.86625 -40.45901 37041 ft 503 kts 29°
2026-04-16 11:51 -18.80446 -40.42358 37037 ft 503 kts 29°
2026-04-16 11:51 -18.74332 -40.38856 37041 ft 502 kts 29°
2026-04-16 11:52 -18.68168 -40.35328 37039 ft 502 kts 29°
2026-04-16 11:52 -18.62068 -40.31841 37036 ft 501 kts 29°
2026-04-16 11:53 -18.55933 -40.28335 37038 ft 501 kts 29°
2026-04-16 11:53 -18.49801 -40.24835 37045 ft 500 kts 29°
2026-04-16 11:54 -18.43714 -40.21362 37040 ft 500 kts 29°
2026-04-16 11:54 -18.37591 -40.17872 37035 ft 500 kts 29°
2026-04-16 11:55 -18.31475 -40.14389 37032 ft 499 kts 29°
2026-04-16 11:55 -18.25353 -40.10905 37038 ft 499 kts 29°
2026-04-16 11:56 -18.19261 -40.07440 37034 ft 498 kts 29°
2026-04-16 11:56 -18.13165 -40.03977 37038 ft 498 kts 29°
2026-04-16 11:57 -18.07063 -40.00512 37034 ft 498 kts 29°
2026-04-16 11:57 -18.00970 -39.97055 37035 ft 497 kts 29°
2026-04-16 11:58 -17.94916 -39.93608 37034 ft 497 kts 29°
2026-04-16 11:58 -17.88837 -39.90134 37036 ft 497 kts 30°
2026-04-16 11:59 -17.83783 -39.87248 37032 ft 496 kts 30°
2026-04-16 11:59 -17.76732 -39.83226 37033 ft 495 kts 30°
2026-04-16 12:00 -17.71694 -39.80356 37041 ft 495 kts 30°
2026-04-16 12:00 -17.65635 -39.76907 37039 ft 495 kts 30°
2026-04-16 12:01 -17.59586 -39.73466 37035 ft 494 kts 30°
2026-04-16 12:01 -17.53514 -39.70015 37031 ft 494 kts 30°
2026-04-16 12:02 -17.44482 -39.64886 37029 ft 494 kts 30°
2026-04-16 12:02 -17.38415 -39.61444 37032 ft 494 kts 30°
2026-04-16 12:03 -17.32366 -39.58015 37033 ft 494 kts 30°
2026-04-16 12:03 -17.26345 -39.54604 37028 ft 494 kts 30°
2026-04-16 12:04 -17.20282 -39.51172 37035 ft 494 kts 30°
2026-04-16 12:04 -17.14260 -39.47765 37025 ft 494 kts 30°
2026-04-16 12:05 -17.08204 -39.44342 37030 ft 494 kts 29°
2026-04-16 12:05 -17.02149 -39.40921 37024 ft 494 kts 29°
2026-04-16 12:06 -16.96122 -39.37521 37024 ft 494 kts 29°
2026-04-16 12:06 -16.90066 -39.34104 37022 ft 494 kts 29°
2026-04-16 12:07 -16.84007 -39.30688 37024 ft 493 kts 29°
2026-04-16 12:07 -16.77996 -39.27301 37016 ft 493 kts 29°
2026-04-16 12:08 -16.71954 -39.23899 37022 ft 493 kts 29°
2026-04-16 12:08 -16.65906 -39.20496 37018 ft 493 kts 29°
2026-04-16 12:09 -16.59877 -39.17107 37018 ft 492 kts 29°
2026-04-16 12:09 -16.53892 -39.13743 37022 ft 491 kts 29°
2026-04-16 12:10 -16.47867 -39.10359 37020 ft 491 kts 29°
2026-04-16 12:10 -16.41826 -39.06996 37017 ft 491 kts 28°
2026-04-16 12:11 -16.35731 -39.03757 37023 ft 491 kts 28°
2026-04-16 12:11 -16.29678 -39.00551 37017 ft 490 kts 28°
2026-04-16 12:12 -16.23586 -38.97302 37016 ft 490 kts 28°
2026-04-16 12:12 -16.17533 -38.94010 37012 ft 489 kts 29°
2026-04-16 12:13 -16.11551 -38.90711 37006 ft 489 kts 29°
2026-04-16 12:13 -16.05528 -38.87398 37013 ft 488 kts 28°
2026-04-16 12:14 -15.99519 -38.84104 37024 ft 488 kts 28°
2026-04-16 12:14 -15.93531 -38.80826 37018 ft 488 kts 28°
2026-04-16 12:15 -15.87516 -38.77533 37008 ft 487 kts 28°
2026-04-16 12:15 -15.81511 -38.74250 37011 ft 486 kts 28°
2026-04-16 12:16 -15.75554 -38.70997 37003 ft 486 kts 28°
2026-04-16 12:16 -15.69550 -38.67719 36999 ft 486 kts 28°
2026-04-16 12:17 -15.63607 -38.64476 37005 ft 485 kts 28°
2026-04-16 12:17 -15.57621 -38.61210 37013 ft 485 kts 28°
2026-04-16 12:18 -15.51661 -38.57962 37013 ft 485 kts 28°
2026-04-16 12:18 -15.45680 -38.54704 37001 ft 485 kts 28°
2026-04-16 12:19 -15.39696 -38.51447 37006 ft 484 kts 28°
2026-04-16 12:19 -15.33725 -38.48199 37007 ft 484 kts 28°
2026-04-16 12:20 -15.27799 -38.44977 37001 ft 483 kts 28°
2026-04-16 12:20 -15.21834 -38.41736 37019 ft 483 kts 28°
2026-04-16 12:21 -15.15867 -38.38496 37008 ft 483 kts 28°
2026-04-16 12:21 -15.09945 -38.35282 37007 ft 483 kts 28°
2026-04-16 12:22 -15.03985 -38.32049 37002 ft 483 kts 28°
2026-04-16 12:22 -14.98031 -38.28821 36999 ft 483 kts 28°
2026-04-16 12:23 -14.92088 -38.25597 37003 ft 483 kts 28°
2026-04-16 12:23 -14.86164 -38.22385 37002 ft 483 kts 28°
2026-04-16 12:24 -14.80208 -38.19155 37007 ft 483 kts 28°
2026-04-16 12:24 -14.74249 -38.15927 37008 ft 483 kts 28°
2026-04-16 12:25 -14.68290 -38.12701 36994 ft 483 kts 28°
2026-04-16 12:25 -14.62370 -38.09497 37009 ft 483 kts 28°
2026-04-16 12:26 -14.56407 -38.06273 37006 ft 482 kts 28°
2026-04-16 12:26 -14.50488 -38.03074 37003 ft 482 kts 28°
2026-04-16 12:27 -14.44519 -37.99850 37006 ft 482 kts 28°
2026-04-16 12:27 -14.38618 -37.96665 37004 ft 481 kts 28°
2026-04-16 12:28 -14.32682 -37.93463 36995 ft 480 kts 28°
2026-04-16 12:28 -14.26747 -37.90263 37002 ft 480 kts 28°
2026-04-16 12:29 -14.20851 -37.87086 37000 ft 480 kts 28°
2026-04-16 12:29 -14.14916 -37.83890 37008 ft 479 kts 28°
2026-04-16 12:30 -14.08998 -37.80705 36996 ft 479 kts 28°
2026-04-16 12:30 -14.03125 -37.77546 36998 ft 478 kts 28°
2026-04-16 12:31 -13.97215 -37.74369 36996 ft 478 kts 28°
2026-04-16 12:31 -13.91311 -37.71198 36997 ft 478 kts 28°
2026-04-16 12:32 -13.85453 -37.68052 36999 ft 478 kts 28°
2026-04-16 12:32 -13.79560 -37.64890 36994 ft 477 kts 28°
2026-04-16 12:33 -13.73669 -37.61731 36991 ft 477 kts 28°
2026-04-16 12:33 -13.67775 -37.58572 36994 ft 477 kts 28°
2026-04-16 12:34 -13.61928 -37.55439 36994 ft 476 kts 28°
2026-04-16 12:34 -13.56031 -37.52282 36991 ft 476 kts 28°
2026-04-16 12:35 -13.50173 -37.49147 36987 ft 476 kts 28°
2026-04-16 12:35 -13.44290 -37.46001 36992 ft 476 kts 28°
2026-04-16 12:36 -13.38446 -37.42877 36998 ft 476 kts 28°
2026-04-16 12:36 -13.32548 -37.39726 36992 ft 476 kts 28°
2026-04-16 12:37 -13.26707 -37.36607 36989 ft 476 kts 28°
2026-04-16 12:37 -13.20808 -37.33459 36989 ft 476 kts 28°
2026-04-16 12:38 -13.14969 -37.30344 36990 ft 476 kts 28°
2026-04-16 12:38 -13.09072 -37.27200 36987 ft 476 kts 27°
2026-04-16 12:39 -13.03215 -37.24084 36992 ft 476 kts 27°
2026-04-16 12:39 -12.97318 -37.20950 36988 ft 476 kts 27°
2026-04-16 12:40 -12.91415 -37.17813 36988 ft 477 kts 27°
2026-04-16 12:40 -12.85561 -37.14704 36989 ft 477 kts 27°
2026-04-16 12:41 -12.79639 -37.11559 36990 ft 477 kts 27°
2026-04-16 12:41 -12.73771 -37.08445 36993 ft 476 kts 27°
2026-04-16 12:42 -12.67885 -37.05323 36990 ft 476 kts 27°
2026-04-16 12:42 -12.62028 -37.02217 36991 ft 476 kts 27°
2026-04-16 12:43 -12.56140 -36.99099 36998 ft 476 kts 26°
2026-04-16 12:43 -12.50257 -36.95982 36990 ft 475 kts 26°
2026-04-16 12:44 -12.44373 -36.92866 36991 ft 475 kts 26°
2026-04-16 12:44 -12.38532 -36.89775 36993 ft 475 kts 26°
2026-04-16 12:45 -12.32650 -36.86664 36987 ft 475 kts 26°
2026-04-16 12:45 -12.26767 -36.83560 36991 ft 475 kts 26°
2026-04-16 12:46 -12.20884 -36.80459 36993 ft 475 kts 26°
2026-04-16 12:46 -12.15033 -36.77375 36990 ft 475 kts 26°
2026-04-16 12:47 -12.09168 -36.74284 36993 ft 475 kts 26°
2026-04-16 12:47 -12.04251 -36.71693 36992 ft 475 kts 25°
2026-04-16 12:48 -11.98395 -36.68610 36990 ft 475 kts 25°
2026-04-16 12:48 -11.92518 -36.65517 36991 ft 474 kts 25°
2026-04-16 12:49 -11.86658 -36.62434 36992 ft 474 kts 25°
2026-04-16 12:49 -11.80809 -36.59359 36993 ft 474 kts 25°
2026-04-16 12:50 -11.74929 -36.56268 36988 ft 474 kts 25°
2026-04-16 12:50 -11.69067 -36.53189 36989 ft 474 kts 25°
2026-04-16 12:51 -11.63239 -36.50129 36986 ft 473 kts 25°
2026-04-16 12:51 -11.57379 -36.47054 36986 ft 473 kts 25°
2026-04-16 12:52 -11.51517 -36.43978 36979 ft 473 kts 25°
2026-04-16 12:52 -11.45661 -36.40908 36983 ft 473 kts 25°
2026-04-16 12:53 -11.39779 -36.37826 36981 ft 473 kts 25°
2026-04-16 12:53 -11.33947 -36.34770 36982 ft 474 kts 25°
2026-04-16 12:54 -11.28075 -36.31695 36980 ft 474 kts 25°
2026-04-16 12:54 -11.22203 -36.28621 36972 ft 474 kts 25°
2026-04-16 12:55 -11.16373 -36.25570 36985 ft 474 kts 24°
2026-04-16 12:55 -11.10527 -36.22471 36979 ft 474 kts 26°
2026-04-16 12:56 -11.04795 -36.19110 36982 ft 475 kts 28°
2026-04-16 12:56 -10.99096 -36.15693 36981 ft 475 kts 28°
2026-04-16 12:57 -10.93407 -36.12323 36970 ft 475 kts 27°
2026-04-16 12:57 -10.87657 -36.08948 36980 ft 475 kts 27°
2026-04-16 12:58 -10.81944 -36.05602 36977 ft 476 kts 27°
2026-04-16 12:58 -10.76197 -36.02237 36978 ft 476 kts 27°
2026-04-16 12:59 -10.70442 -35.98867 36981 ft 476 kts 27°
2026-04-16 13:00 -10.61844 -35.93834 36974 ft 476 kts 26°
2026-04-16 13:00 -10.56086 -35.90466 36983 ft 476 kts 26°
2026-04-16 13:01 -10.50364 -35.87120 36981 ft 477 kts 27°
2026-04-16 13:01 -10.44595 -35.83747 36977 ft 477 kts 27°
2026-04-16 13:02 -10.38877 -35.80406 36972 ft 476 kts 26°
2026-04-16 13:02 -10.33120 -35.77049 36973 ft 476 kts 26°
2026-04-16 13:03 -10.27363 -35.73699 36976 ft 476 kts 26°
2026-04-16 13:03 -10.21614 -35.70354 36970 ft 475 kts 26°
2026-04-16 13:04 -10.15898 -35.67029 36977 ft 475 kts 26°
2026-04-16 13:04 -10.10154 -35.63688 36967 ft 475 kts 26°
2026-04-16 13:05 -10.04420 -35.60353 36984 ft 475 kts 26°
2026-04-16 13:05 -9.98715 -35.57038 36977 ft 474 kts 26°
2026-04-16 13:06 -9.92973 -35.53702 36967 ft 474 kts 26°
2026-04-16 13:06 -9.87241 -35.50373 36966 ft 474 kts 26°
2026-04-16 13:07 -9.81546 -35.47068 36970 ft 474 kts 26°
2026-04-16 13:07 -9.75810 -35.43739 36953 ft 474 kts 26°
2026-04-16 13:08 -9.70067 -35.40409 36973 ft 474 kts 26°
2026-04-16 13:08 -9.64352 -35.37095 36968 ft 474 kts 26°
2026-04-16 13:09 -9.58646 -35.33788 36957 ft 474 kts 26°
2026-04-16 13:09 -9.52908 -35.30463 36957 ft 474 kts 26°
2026-04-16 13:10 -9.47201 -35.27158 36962 ft 474 kts 26°
2026-04-16 13:10 -9.41458 -35.23834 36968 ft 474 kts 26°
2026-04-16 13:11 -9.35726 -35.20517 36954 ft 474 kts 26°
2026-04-16 13:11 -9.30033 -35.17223 36965 ft 474 kts 26°
2026-04-16 13:12 -9.24319 -35.13917 36936 ft 467 kts 26°
2026-04-16 13:12 -9.18779 -35.10711 36931 ft 445 kts 26°
2026-04-16 13:12 -9.16130 -35.09178 36940 ft 430 kts 26°
2026-04-16 13:13 -9.13572 -35.07700 36932 ft 416 kts 26°
2026-04-16 13:13 -9.11127 -35.06288 36934 ft 403 kts 25°
2026-04-16 13:13 -9.08725 -35.04900 36928 ft 390 kts 25°
2026-04-16 13:14 -9.03803 -35.02881 36970 ft 382 kts
2026-04-16 13:14 -8.98502 -35.02213 36958 ft 392 kts
2026-04-16 13:15 -8.93026 -35.01643 36961 ft 398 kts
2026-04-16 13:15 -8.87529 -35.01045 36944 ft 392 kts
2026-04-16 13:16 -8.82152 -35.00441 36947 ft 387 kts
2026-04-16 13:16 -8.76818 -34.99839 36960 ft 388 kts
2026-04-16 13:17 -8.71427 -34.99229 36963 ft 390 kts
2026-04-16 13:17 -8.66016 -34.98617 36946 ft 392 kts
2026-04-16 13:18 -8.60586 -34.98002 36959 ft 393 kts
2026-04-16 13:18 -8.55131 -34.97384 36955 ft 394 kts
2026-04-16 13:19 -8.49704 -34.96770 36951 ft 395 kts
2026-04-16 13:19 -8.44226 -34.96150 36949 ft 395 kts
2026-04-16 13:20 -8.38794 -34.95536 36948 ft 394 kts
2026-04-16 13:20 -8.33324 -34.94918 36953 ft 394 kts
2026-04-16 13:21 -8.27909 -34.94305 36959 ft 393 kts
2026-04-16 13:21 -8.22466 -34.93690 36967 ft 392 kts
2026-04-16 13:22 -8.17037 -34.93077 36967 ft 392 kts
2026-04-16 13:22 -8.11676 -34.93054 36960 ft 383 kts 345°
2026-04-16 13:23 -8.06464 -34.94177 36960 ft 382 kts 344°
2026-04-16 13:23 -8.01297 -34.95309 36965 ft 382 kts 345°
2026-04-16 13:24 -7.96093 -34.96429 36961 ft 382 kts 345°
2026-04-16 13:24 -7.90878 -34.97539 36959 ft 383 kts 345°
2026-04-16 13:25 -7.85659 -34.98646 36951 ft 383 kts 345°
2026-04-16 13:25 -7.80452 -34.99750 36946 ft 384 kts 345°
2026-04-16 13:26 -7.75197 -35.00863 36942 ft 385 kts 345°
2026-04-16 13:26 -7.69949 -35.01975 36942 ft 386 kts 345°
2026-04-16 13:27 -7.64688 -35.03089 36939 ft 387 kts 345°
2026-04-16 13:27 -7.59415 -35.04205 36949 ft 387 kts 345°
2026-04-16 13:28 -7.54157 -35.05318 36942 ft 388 kts 345°
2026-04-16 13:28 -7.48871 -35.06437 36944 ft 388 kts 345°
2026-04-16 13:29 -7.43576 -35.07557 36936 ft 388 kts 345°
2026-04-16 13:29 -7.38324 -35.08668 36949 ft 387 kts 345°
2026-04-16 13:30 -7.33044 -35.09785 36951 ft 387 kts 345°
2026-04-16 13:30 -7.27807 -35.10892 36959 ft 386 kts 345°
2026-04-16 13:31 -7.22532 -35.12007 36952 ft 386 kts 345°
2026-04-16 13:31 -7.17268 -35.13120 36958 ft 386 kts 345°
2026-04-16 13:32 -7.12012 -35.14123 36930 ft 388 kts 357°
2026-04-16 13:32 -7.09350 -35.13718 36973 ft 391 kts 17°
2026-04-16 13:32 -7.06916 -35.12474 36941 ft 396 kts 36°
2026-04-16 13:32 -7.05032 -35.10456 36945 ft 400 kts 59°
2026-04-16 13:33 -7.04300 -35.08752 36951 ft 402 kts 76°
2026-04-16 13:33 -7.04147 -35.05936 36965 ft 407 kts 101°
2026-04-16 13:33 -7.05152 -35.03279 36954 ft 410 kts 127°
2026-04-16 13:33 -7.07144 -35.01256 36975 ft 409 kts 151°
2026-04-16 13:34 -7.09670 -34.99937 36992 ft 411 kts 150°
2026-04-16 13:34 -7.11949 -34.98178 36991 ft 413 kts 138°
2026-04-16 13:34 -7.13963 -34.96164 36958 ft 415 kts 135°
2026-04-16 13:35 -7.17961 -34.92019 36950 ft 409 kts 135°
2026-04-16 13:35 -7.21898 -34.87909 36966 ft 410 kts 135°
2026-04-16 13:36 -7.25867 -34.83755 36960 ft 411 kts 135°
2026-04-16 13:36 -7.29847 -34.79588 36951 ft 412 kts 135°
2026-04-16 13:37 -7.33836 -34.75411 36948 ft 413 kts 135°
2026-04-16 13:37 -7.37800 -34.71262 36940 ft 413 kts 135°
2026-04-16 13:38 -7.41808 -34.67085 36932 ft 413 kts 135°
2026-04-16 13:38 -7.45781 -34.62949 36933 ft 412 kts 135°
2026-04-16 13:39 -7.49762 -34.58804 36931 ft 412 kts 135°
2026-04-16 13:39 -7.53747 -34.54650 36929 ft 411 kts 135°
2026-04-16 13:40 -7.57720 -34.50500 36936 ft 411 kts 135°
2026-04-16 13:40 -7.61691 -34.46351 36930 ft 410 kts 135°
2026-04-16 13:41 -7.65644 -34.42235 36933 ft 410 kts 135°
2026-04-16 13:41 -7.69616 -34.38106 36932 ft 410 kts 135°
2026-04-16 13:42 -7.73597 -34.33970 36936 ft 411 kts 135°
2026-04-16 13:42 -7.77566 -34.29848 36935 ft 411 kts 135°
2026-04-16 13:43 -7.81563 -34.25696 36929 ft 412 kts 135°
2026-04-16 13:43 -7.85537 -34.21566 36938 ft 412 kts 135°
2026-04-16 13:44 -7.89550 -34.17397 36936 ft 413 kts 135°
2026-04-16 13:44 -7.93574 -34.13220 36938 ft 415 kts 135°
2026-04-16 13:45 -7.97579 -34.09064 36933 ft 416 kts 135°
2026-04-16 13:45 -8.01623 -34.04870 36933 ft 416 kts 135°
2026-04-16 13:46 -8.05650 -34.00694 36933 ft 417 kts 135°
2026-04-16 13:46 -8.09704 -33.96491 36926 ft 418 kts 135°
2026-04-16 13:47 -8.13764 -33.92280 36933 ft 419 kts 135°
2026-04-16 13:47 -8.17830 -33.88062 36932 ft 418 kts 135°
2026-04-16 13:48 -8.21854 -33.83880 36925 ft 417 kts 135°
2026-04-16 13:48 -8.25893 -33.79667 36925 ft 416 kts 135°
2026-04-16 13:49 -8.29917 -33.75463 36937 ft 415 kts 135°
2026-04-16 13:49 -8.33936 -33.71264 36932 ft 414 kts 135°
2026-04-16 13:50 -8.37923 -33.67103 36929 ft 414 kts 135°
2026-04-16 13:50 -8.41937 -33.62931 36929 ft 413 kts 135°
2026-04-16 13:51 -8.45955 -33.58760 36931 ft 414 kts 135°
2026-04-16 13:51 -8.49952 -33.54613 36929 ft 415 kts 135°
2026-04-16 13:52 -8.53985 -33.50429 36937 ft 415 kts 135°
2026-04-16 13:52 -8.58016 -33.46232 36930 ft 416 kts 135°
2026-04-16 13:53 -8.62048 -33.42021 36931 ft 417 kts 135°
2026-04-16 13:53 -8.66072 -33.37829 36927 ft 418 kts 135°
2026-04-16 13:54 -8.70138 -33.33601 36927 ft 419 kts 135°
2026-04-16 13:54 -8.74181 -33.29398 36928 ft 419 kts 135°
2026-04-16 13:55 -8.78265 -33.25155 36923 ft 420 kts 135°
2026-04-16 13:55 -8.82322 -33.20939 36924 ft 420 kts 135°
2026-04-16 13:56 -8.86402 -33.16698 36933 ft 420 kts 135°
2026-04-16 13:56 -8.90479 -33.12461 36922 ft 420 kts 135°
2026-04-16 13:57 -8.94557 -33.08215 36934 ft 420 kts 135°
2026-04-16 13:57 -8.98547 -33.03908 36914 ft 429 kts 123°
2026-04-16 13:58 -9.00312 -32.98158 36921 ft 437 kts 86°
2026-04-16 13:58 -8.99838 -32.95126 36939 ft 436 kts 68°
2026-04-16 13:58 -8.98493 -32.92388 36931 ft 434 kts 49°
2026-04-16 13:58 -8.96443 -32.90224 36930 ft 431 kts 32°
2026-04-16 13:59 -8.93820 -32.88748 36795 ft 431 kts 15°
2026-04-16 13:59 -8.90895 -32.88152 36778 ft 428 kts 358°
2026-04-16 13:59 -8.87946 -32.88441 36770 ft 427 kts 342°
2026-04-16 13:59 -8.85197 -32.89573 36765 ft 427 kts 327°
2026-04-16 14:00 -8.82867 -32.91392 36738 ft 429 kts 311°
2026-04-16 14:00 -8.80908 -32.93693 36759 ft 429 kts 309°
2026-04-16 14:00 -8.77164 -32.98410 36479 ft 430 kts 308°
2026-04-16 14:01 -8.73496 -33.03056 36506 ft 421 kts 308°
2026-04-16 14:01 -8.69795 -33.07680 36509 ft 424 kts 308°
2026-04-16 14:02 -8.66065 -33.12301 36504 ft 426 kts 309°
2026-04-16 14:02 -8.62329 -33.16916 36497 ft 423 kts 308°
2026-04-16 14:03 -8.58573 -33.21496 36501 ft 423 kts 309°
2026-04-16 14:03 -8.54755 -33.26051 36496 ft 424 kts 309°
2026-04-16 14:04 -8.51620 -33.30969 36489 ft 423 kts 283°
2026-04-16 14:04 -8.50463 -33.36794 36461 ft 426 kts 300°
2026-04-16 14:05 -8.48606 -33.39111 36477 ft 427 kts 319°
2026-04-16 14:05 -8.46224 -33.40916 36505 ft 429 kts 324°
2026-04-16 14:05 -8.41457 -33.44567 36478 ft 431 kts 317°
2026-04-16 14:06 -8.39276 -33.46652 36205 ft 431 kts 313°
2026-04-16 14:06 -8.37278 -33.48841 35969 ft 426 kts 310°
2026-04-16 14:06 -8.35361 -33.51145 35719 ft 420 kts 308°
2026-04-16 14:06 -8.33568 -33.53422 35486 ft 417 kts 307°
2026-04-16 14:07 -8.31790 -33.55739 35240 ft 414 kts 307°
2026-04-16 14:07 -8.30050 -33.58028 34850 ft 410 kts 307°
2026-04-16 14:07 -8.28321 -33.60305 34453 ft 407 kts 307°
2026-04-16 14:07 -8.26595 -33.62573 34035 ft 405 kts 307°
2026-04-16 14:08 -8.24879 -33.64822 33578 ft 403 kts 307°
2026-04-16 14:08 -8.23172 -33.67055 33134 ft 400 kts 308°
2026-04-16 14:08 -8.21475 -33.69270 32714 ft 397 kts 308°
2026-04-16 14:08 -8.19811 -33.71440 32291 ft 395 kts 308°
2026-04-16 14:09 -8.18135 -33.73625 31891 ft 392 kts 308°
2026-04-16 14:09 -8.16465 -33.75800 31483 ft 390 kts 308°
2026-04-16 14:09 -8.14806 -33.77960 31083 ft 388 kts 308°
2026-04-16 14:09 -8.13151 -33.80115 30672 ft 387 kts 308°
2026-04-16 14:10 -8.11504 -33.82259 30265 ft 386 kts 308°
2026-04-16 14:10 -8.09861 -33.84399 29836 ft 385 kts 308°
2026-04-16 14:10 -8.08220 -33.86534 29389 ft 382 kts 308°
2026-04-16 14:10 -8.06617 -33.88620 28956 ft 380 kts 308°
2026-04-16 14:11 -8.05004 -33.90718 28540 ft 377 kts 308°
2026-04-16 14:11 -8.03401 -33.92804 28120 ft 375 kts 307°
2026-04-16 14:11 -8.01803 -33.94883 27702 ft 373 kts 307°
2026-04-16 14:11 -8.00214 -33.96949 27298 ft 370 kts 307°
2026-04-16 14:12 -7.98635 -33.99004 26896 ft 368 kts 307°
2026-04-16 14:12 -7.97067 -34.01043 26493 ft 366 kts 307°
2026-04-16 14:12 -7.95507 -34.03070 26083 ft 365 kts 307°
2026-04-16 14:12 -7.93968 -34.05071 25677 ft 364 kts 307°
2026-04-16 14:13 -7.92414 -34.07091 25268 ft 363 kts 307°
2026-04-16 14:13 -7.90868 -34.09100 24866 ft 363 kts 307°
2026-04-16 14:13 -7.89322 -34.11109 24467 ft 362 kts 306°
2026-04-16 14:13 -7.87775 -34.13118 24057 ft 362 kts 306°
2026-04-16 14:14 -7.86231 -34.15124 23650 ft 362 kts 306°
2026-04-16 14:14 -7.84686 -34.17132 23193 ft 362 kts 306°
2026-04-16 14:14 -7.83147 -34.19131 22768 ft 360 kts 306°
2026-04-16 14:14 -7.81633 -34.21096 22366 ft 358 kts 306°
2026-04-16 14:15 -7.80110 -34.23073 21961 ft 356 kts 306°
2026-04-16 14:15 -7.78594 -34.25043 21563 ft 354 kts 306°
2026-04-16 14:15 -7.77086 -34.26999 21183 ft 353 kts 307°
2026-04-16 14:15 -7.75583 -34.28951 20762 ft 352 kts 307°
2026-04-16 14:16 -7.74076 -34.30906 20371 ft 351 kts 307°
2026-04-16 14:16 -7.72579 -34.32850 19973 ft 351 kts 307°
2026-04-16 14:16 -7.71077 -34.34798 19568 ft 351 kts 307°
2026-04-16 14:16 -7.69600 -34.36715 19178 ft 351 kts 307°
2026-04-16 14:17 -7.68099 -34.38662 18774 ft 351 kts 307°
2026-04-16 14:17 -7.66597 -34.40610 18366 ft 351 kts 308°
2026-04-16 14:17 -7.65099 -34.42552 17947 ft 351 kts 308°
2026-04-16 14:17 -7.63603 -34.44492 17539 ft 350 kts 308°
2026-04-16 14:18 -7.62114 -34.46422 17147 ft 348 kts 308°
2026-04-16 14:18 -7.60633 -34.48341 16736 ft 347 kts 308°
2026-04-16 14:18 -7.59154 -34.50258 16355 ft 345 kts 308°
2026-04-16 14:18 -7.57683 -34.52165 15961 ft 343 kts 308°
2026-04-16 14:19 -7.56217 -34.54064 15570 ft 342 kts 308°
2026-04-16 14:19 -7.54754 -34.55960 15170 ft 342 kts 308°
2026-04-16 14:19 -7.53298 -34.57845 14785 ft 340 kts 308°
2026-04-16 14:19 -7.52334 -34.59094 14528 ft 340 kts 308°
2026-04-16 14:20 -7.50886 -34.60970 14136 ft 339 kts 309°
2026-04-16 14:20 -7.49439 -34.62844 13746 ft 338 kts 309°
2026-04-16 14:20 -7.47995 -34.64714 13313 ft 338 kts 309°
2026-04-16 14:20 -7.46555 -34.66578 12928 ft 335 kts 309°
2026-04-16 14:21 -7.45132 -34.68420 12535 ft 332 kts 309°
2026-04-16 14:21 -7.43716 -34.70253 12164 ft 330 kts 309°
2026-04-16 14:21 -7.42324 -34.72054 11766 ft 329 kts 309°
2026-04-16 14:21 -7.40919 -34.73872 11383 ft 327 kts 309°
2026-04-16 14:22 -7.39523 -34.75678 11008 ft 326 kts 309°
2026-04-16 14:22 -7.38134 -34.77477 10622 ft 325 kts 309°
2026-04-16 14:22 -7.36742 -34.79276 10240 ft 325 kts 309°
2026-04-16 14:22 -7.35371 -34.81051 10057 ft 317 kts 309°
2026-04-16 14:23 -7.34031 -34.82786 9873 ft 309 kts 309°
2026-04-16 14:23 -7.32753 -34.84440 9869 ft 296 kts 309°
2026-04-16 14:23 -7.31461 -34.86110 9256 ft 305 kts 309°
2026-04-16 14:23 -7.30151 -34.87802 8841 ft 306 kts 309°
2026-04-16 14:24 -7.28839 -34.89497 8469 ft 305 kts 308°
2026-04-16 14:24 -7.27552 -34.91161 8139 ft 303 kts 309°
2026-04-16 14:24 -7.26250 -34.92843 7773 ft 302 kts 308°
2026-04-16 14:24 -7.24959 -34.94511 7413 ft 302 kts 308°
2026-04-16 14:25 -7.23672 -34.96174 7089 ft 300 kts 308°
2026-04-16 14:25 -7.22386 -34.97835 6741 ft 300 kts 308°
2026-04-16 14:25 -7.21109 -34.99486 6320 ft 303 kts 308°
2026-04-16 14:25 -7.19824 -35.01146 6064 ft 293 kts 308°
2026-04-16 14:26 -7.18633 -35.02687 6071 ft 268 kts 308°
2026-04-16 14:26 -7.17517 -35.04129 5943 ft 253 kts 308°
2026-04-16 14:26 -7.16463 -35.05489 5837 ft 238 kts 308°
2026-04-16 14:26 -7.15469 -35.06774 5717 ft 226 kts 308°
2026-04-16 14:27 -7.14542 -35.07970 5585 ft 215 kts 307°
2026-04-16 14:27 -7.13614 -35.09169 5249 ft 217 kts 307°
2026-04-16 14:27 -7.12688 -35.10364 5015 ft 214 kts 307°
2026-04-16 14:27 -7.11780 -35.11536 4805 ft 210 kts 307°
2026-04-16 14:28 -7.10893 -35.12681 4517 ft 211 kts 308°
2026-04-16 14:28 -7.09765 -35.13603 4237 ft 208 kts 343°
2026-04-16 14:28 -7.08376 -35.13599 3953 ft 199 kts 25°
2026-04-16 14:28 -7.07247 -35.12847 3659 ft 193 kts 47°
2026-04-16 14:29 -7.06328 -35.11926 3468 ft 183 kts 49°
2026-04-16 14:29 -7.05436 -35.11017 3330 ft 181 kts 51°
2026-04-16 14:29 -7.04562 -35.10126 3268 ft 178 kts 49°
2026-04-16 14:29 -7.03691 -35.09243 3186 ft 177 kts 49°
2026-04-16 14:30 -7.02937 -35.08278 3049 ft 173 kts 77°
2026-04-16 14:30 -7.02958 -35.07129 3015 ft 164 kts 117°
2026-04-16 14:30 -7.03641 -35.06222 2966 ft 164 kts 136°
2026-04-16 14:30 -7.04450 -35.05411 2775 ft 165 kts 136°
2026-04-16 14:31 -7.05268 -35.04596 2605 ft 165 kts 136°
2026-04-16 14:31 -7.06084 -35.03782 2396 ft 165 kts 136°
2026-04-16 14:31 -7.06882 -35.02988 2165 ft 159 kts 136°
2026-04-16 14:31 -7.07676 -35.02204 1993 ft 158 kts 136°
2026-04-16 14:32 -7.08411 -35.01473 1847 ft 138 kts 136°
2026-04-16 14:32 -7.09075 -35.00811 1647 ft 133 kts 135°
2026-04-16 14:32 -7.09731 -35.00157 1457 ft 131 kts 136°
2026-04-16 14:32 -7.10379 -34.99516 1307 ft 133 kts 136°
2026-04-16 14:33 -7.11039 -34.98856 1091 ft 129 kts 138°
2026-04-16 14:33 -7.11660 -34.98239 951 ft 125 kts 139°
2026-04-16 14:33 -7.12283 -34.97621 808 ft 130 kts 138°
2026-04-16 14:33 -7.12929 -34.96974 608 ft 133 kts 137°
2026-04-16 14:34 -7.13593 -34.96333 407 ft 130 kts 138°
2026-04-16 14:34 -7.14203 -34.95716 238 ft 117 kts 136°
2026-04-16 14:34 -7.14700 -34.95222 221 ft 75 kts 135°
2026-04-16 14:34 -7.14944 -34.94978 222 ft 38 kts 135°
2026-04-16 14:35 -7.15082 -34.94887 222 ft 17 kts 135°
2026-04-16 14:35 -7.15078 -34.94847 222 ft 1 kts
2026-04-16 14:35 -7.15045 -34.94878 222 ft 13 kts 315°
2026-04-16 14:35 -7.14973 -34.94951 222 ft 15 kts 315°
2026-04-16 14:36 -7.14900 -34.95025 222 ft 15 kts 315°
2026-04-16 14:36 -7.14819 -34.95074 222 ft 14 kts
2026-04-16 14:36 -7.14742 -34.95020 221 ft 14 kts 44°
2026-04-16 14:36 -7.14743 -34.94941 220 ft 13 kts 134°
2026-04-16 14:37 -7.14762 -34.94865 222 ft 13 kts 49°
2026-04-16 14:37 -7.14725 -34.94835 220 ft 3 kts 357°
2026-04-16 14:37 -7.14709 -34.94847 220 ft 3 kts 317°
2026-04-16 14:37 -7.14694 -34.94862 220 ft 0 kts 314°